STARLINK-5735, 55603

Orbit data source: Space-Track

STARLINK-5735, 55603 is a payload satellite owned by SpaceX/Seattle (US) in LEO that was launched on Sun, 12 Feb 2023 UTC via an FALCON 9 launch vehicle from the Air Force Eastern Test Range (AFETR). Payload-class satellites include a variety of spacecraft equipped with specific instruments for various scientific and technological missions. These include communications satellites like Starlink; space stations such as the ISS; scientific satellites like the Hubble; Earth observation satellites from companies like Planet Labs, Umbra, and HawkEye 360; GPS; miniature CubeSats for education and research; and military/defense satellites.

Loading next visibility...
Identifier
55603, 2023-020AL
Orbit
LEO
Country
Flag of USUS
Related business
Manufacturer
SpaceX/Seattle
Mission
Operational Commercial Communications
Bus & Motor
STARLINK, Unknown motor
Mass
305 kg wet, ~290 kg dry
Launch date (UTC)
2023-02-12 (4 years ago)
Launch vehicle
FALCON 9
Launch site
Air Force Eastern Test Range (AFETR)
Object type
Payload
Rocket body
Debris
Shape & HBR
Box + 1 Pan, 10.1 m
Radar Cross Section
13.562 m², Large (>1 m²)

Expand to show TLE details & history
Last TLE update: 11 hours ago

TLE from 11 hours ago
0 STARLINK-5735
1 55603U 23020AL  26264.47212535 -.00000111  00000-0  55026-5 0  9992
2 55603  43.0025 328.3921 0001083 271.3045  88.7682 15.27575655198989
Epoch: 2026-09-21T11:19Z
TLE epoch observation values (Epoch: 2026-09-21T11:19:51.630Z)
Latitude
-0.00005°
Longitude
158.07546°
Altitude
482.822 km
Speed
7.626 km/s
True Right ascension
21h 53m 34s
True Declination
0° 00' 00"
Sunlit
Object was in full shadow at epoch
Visualization orbit readout
Latitude
Unknown
Longitude
Unknown
Altitude
Unknown
Speed
Unknown
Apparent Right ascension
Unknown
Apparent Declination
Unknown
Sunlit
N/A
Visualization observer readout
Local Sidereal Time
15:13:07
Azimuth
Unknown
Elevation
Unknown
Doppler factor
Unknown
Orbital elements
Apogee altitude
485.75 km
Perigee altitude
484.264 km
Semi-major axis
6,863.144 km
Eccentricity
0.00011
Inclination
43.0025°
RAAN
328.3921°
Arg. of periapsis
271.3045°
True anomaly
88.78061°
Mean anomaly
88.7682°
Eccentric anomaly
88.7744°
Mean motion
3.81732 °/min
Orbital period
94.31 mins
BSTAR
0.0000055026
Loading maneuver chart data...
Computing Atmospheric mass density...
Loading historical data...
Loading historical data...
Loading historical data...
Loading historical data...
Loading historical data...
Loading historical data...
Loading historical data...

Documentation

Showing up to 5 results
|